User: anonymous   Login
Location: Unspecified
(0.0000°N, 0.0000°E)
Time: 01:08:35
(UTC+00:00)
Language:

AO-7 - Orbit

View from above orbital plane
View from above orbital plane
View from above satellite
View from above satellite

Ground track
Ground track

The orbit data is extracted from the following two-line orbital elements,

1  7530U 74089B   19017.45537863 -.00000033  00000-0  76656-4 0  9993
2  7530 101.7218 346.8168 0011911 281.9459 194.0554 12.53636352 21449
Epoch (UTC): 17 January 2019 10:55:44
Eccentricity: 0.0011911
inclination: 101.7218°
perigee height: 1440 km
apogee height: 1458 km
right ascension of ascending node: 346.8168°
argument of perigee: 281.9459°
revolutions per day: 12.53636352
mean anomaly at epoch: 194.0554°
orbit number at epoch: 2144

The dashed part of the orbit path shows where the satellite is in the earth's shadow,  

DLR